星链-31902 (STARLINK-31902 )

导读 | 星芒AI

STARLINK-31902 是 SpaceX Starlink 卫星互联网项目中的一颗低轨卫星,属于第二代 Starlink 卫星(Gen2)。它于2023年发射,旨在为全球用户提供高速、低延迟的宽带互联网服务。该卫星采用先进通信技术,支持更高带宽和更广覆盖范围,有助于改善偏远地区的网络接入。作为 Starlink 群体的一部分,它运行在约550公里高度的近地轨道,与其他卫星协同工作,构建全球性互联网网络。

基本信息
目录编号:
59666
目录名称:
STARLINK-31902
国际标识:
2024-084N
轨道中心:
EARTH
卫星名称:
星链-31902
卫星全名:
星链-31902 (STARLINK-31902 )
卫星状态:
在轨 (已飞行546 天)
发射日期:
2024-05-06 UTC
国别 :
美国 (US)
星等 :
--
轨道信息
数据来源 国际轨道数据
星历时间: 2025-11-02T00:27:09+0800
1天前
查看轨道信息
半长轴: 6861.148km
偏心率: 0.0001163
轨道倾角: 43.002°
近地点辐角 269.472°
升交点赤经 44.949°
平近点角 90.600°
近地点: 482.215km
远地点: 483.811km
周期: 94.266分钟
每日圈数: 15.27593
详细信息
固有亮度:
5
最大亮度:
1.5
卫星平台:
Starlink v2.0 mini
覆盖范围:
全球
运营商:
太空探索技术公司
运营商所在国:
美国
制造商(研发单位):
太空探索技术公司
制造商所在国:
美国
使用方式:
暂无
卫星简介
星链(Starlink)计划是由太空探索技术公司(SpaceX)提出的一个巨型低轨卫星互联网星座项目,计划在2019年至2024年间在太空搭建由约1.2万颗卫星组成的“星链”网络,其中1584颗将部署在地球上空550千米处的近地轨道,并从2020年开始工作。该卫星仍在工作。
2D轨道图
3D轨道图
轨道高度分析图
轨道倾角分析图
轨道综合分析图
查看轨道综合分析图